ARE4024 SKBO-SKRG

Flight info

Callsign ARE4024
Flight time N/A
Altitude 24000
Route TOBKI4R VASIL W36 NIRSO NIRSO3C
Aircraft A320/M-SDE3FGHIRWY/LB1

Departure

Time N/A
Airport El Dorado International Airport (SKBO)

Arrival

Time 2026-04-30 18:38
Airport Jose Maria Córdova International Airport (SKRG)
Time Latitude Longitude Altitude Speed Heading
2026-04-30 17:39 6.19655 -75.42318 24274 ft 319 kts
2026-04-30 17:41 6.19765 -75.33296 24266 ft 291 kts 164°
2026-04-30 17:42 6.15986 -75.31888 24262 ft 291 kts 154°
2026-04-30 17:42 6.12679 -75.27290 24208 ft 293 kts 89°
2026-04-30 17:43 6.14400 -75.23647 24177 ft 306 kts 39°
2026-04-30 17:44 6.20740 -75.22836 24161 ft 319 kts 359°
2026-04-30 17:44 6.27249 -75.23898 24148 ft 319 kts 323°
2026-04-30 17:46 6.26047 -75.32520 24228 ft 296 kts 193°
2026-04-30 17:47 6.17912 -75.32460 24265 ft 295 kts 173°
2026-04-30 17:48 6.12930 -75.27161 24207 ft 294 kts 87°
2026-04-30 17:48 6.16662 -75.22553 24160 ft 312 kts 13°
2026-04-30 17:49 6.25456 -75.22825 24143 ft 319 kts 348°
2026-04-30 17:50 6.29198 -75.29552 24178 ft 306 kts 244°
2026-04-30 17:51 6.24342 -75.32771 24238 ft 291 kts 177°
2026-04-30 17:52 6.18239 -75.32477 24264 ft 294 kts 174°
2026-04-30 17:53 6.13353 -75.25463 24187 ft 298 kts 66°
2026-04-30 17:54 6.20779 -75.22535 24150 ft 317 kts 359°
2026-04-30 17:55 6.28767 -75.25168 24139 ft 316 kts 298°
2026-04-30 17:56 6.27096 -75.32048 24209 ft 297 kts 206°
2026-04-30 17:57 6.21117 -75.32666 24257 ft 293 kts 175°
2026-04-30 17:58 6.15177 -75.31600 24254 ft 288 kts 143°
2026-04-30 17:59 6.13993 -75.24416 24175 ft 302 kts 53°
2026-04-30 18:00 6.22064 -75.22645 24142 ft 318 kts 358°
2026-04-30 18:00 6.28228 -75.24476 24132 ft 318 kts 308°
2026-04-30 18:01 6.29429 -75.28548 24161 ft 309 kts 256°
2026-04-30 18:02 6.25280 -75.32697 24201 ft 293 kts 184°
2026-04-30 18:02 6.19159 -75.32544 24236 ft 293 kts 174°
2026-04-30 18:03 6.13859 -75.30283 24212 ft 286 kts 123°
2026-04-30 18:04 6.13942 -75.24543 24154 ft 300 kts 54°
2026-04-30 18:05 6.21961 -75.22680 24126 ft 317 kts 358°
2026-04-30 18:06 6.29220 -75.26276 24124 ft 313 kts 283°
2026-04-30 18:07 6.25396 -75.32682 24200 ft 292 kts 184°
2026-04-30 18:08 6.19345 -75.32558 24234 ft 291 kts 174°
2026-04-30 18:09 6.13150 -75.28630 24194 ft 289 kts 103°
2026-04-30 18:10 6.17454 -75.22607 24130 ft 312 kts
2026-04-30 18:11 6.26173 -75.23216 24114 ft 317 kts 338°
2026-04-30 18:11 6.29398 -75.28387 24137 ft 308 kts 258°
2026-04-30 18:12 6.25406 -75.32682 24199 ft 292 kts 184°
2026-04-30 18:13 6.21406 -75.32676 24227 ft 292 kts 174°
2026-04-30 18:13 6.16039 -75.32059 24234 ft 290 kts 154°
2026-04-30 18:14 6.13122 -75.28584 24191 ft 291 kts 102°
2026-04-30 18:15 6.15406 -75.23244 24138 ft 306 kts 32°
2026-04-30 18:15 6.21813 -75.22710 24120 ft 316 kts 358°
2026-04-30 18:16 6.26192 -75.23186 24107 ft 317 kts 338°
2026-04-30 18:16 6.29173 -75.26211 24119 ft 313 kts 285°
2026-04-30 18:17 6.29420 -75.28352 24136 ft 308 kts 259°
2026-04-30 18:17 6.28747 -75.30365 24157 ft 302 kts 234°
2026-04-30 18:17 6.25471 -75.32664 24197 ft 292 kts 186°
2026-04-30 18:18 6.23448 -75.32748 24216 ft 291 kts 176°
2026-04-30 18:18 6.21419 -75.32667 24226 ft 292 kts 175°
2026-04-30 18:18 6.19377 -75.32545 24234 ft 293 kts 174°
2026-04-30 18:18 6.17364 -75.32400 24234 ft 292 kts 169°
2026-04-30 18:19 6.15446 -75.31756 24231 ft 287 kts 147°
2026-04-30 18:19 6.13977 -75.30448 24210 ft 286 kts 125°
2026-04-30 18:19 6.13125 -75.28641 24190 ft 288 kts 103°
2026-04-30 18:19 6.13051 -75.26651 24169 ft 293 kts 80°
2026-04-30 18:20 6.13788 -75.24749 24149 ft 298 kts 57°
2026-04-30 18:20 6.15284 -75.23276 24133 ft 305 kts 33°
2026-04-30 18:20 6.17293 -75.22570 24124 ft 310 kts
2026-04-30 18:20 6.19473 -75.22567 24124 ft 315 kts 360°
2026-04-30 18:21 6.21637 -75.22672 24120 ft 315 kts 358°
2026-04-30 18:21 6.23840 -75.22805 24112 ft 315 kts 358°
2026-04-30 18:21 6.26015 -75.23102 24104 ft 317 kts 341°
2026-04-30 18:21 6.27892 -75.24200 24105 ft 315 kts 314°
2026-04-30 18:22 6.29111 -75.25977 24116 ft 312 kts 288°
2026-04-30 18:22 6.28903 -75.30137 24151 ft 302 kts 237°
2026-04-30 18:22 6.27568 -75.31734 24175 ft 296 kts 213°
2026-04-30 18:23 6.25762 -75.32617 24196 ft 291 kts 189°
2026-04-30 18:23 6.23745 -75.32771 24213 ft 290 kts 176°
2026-04-30 18:23 6.21725 -75.32703 24226 ft 291 kts 175°
2026-04-30 18:23 6.19707 -75.32583 24232 ft 291 kts 174°
2026-04-30 18:24 6.15764 -75.31928 24231 ft 285 kts 150°
2026-04-30 18:24 6.14239 -75.30728 24215 ft 283 kts 129°
2026-04-30 18:24 6.13279 -75.28991 24192 ft 286 kts 106°
2026-04-30 18:25 6.13087 -75.26993 24170 ft 291 kts 83°
2026-04-30 18:25 6.15121 -75.23546 24134 ft 305 kts 35°
2026-04-30 18:25 6.17083 -75.22741 24126 ft 310 kts
2026-04-30 18:26 6.21442 -75.22802 24118 ft 316 kts 358°
2026-04-30 18:26 6.23642 -75.22933 24110 ft 315 kts 358°
2026-04-30 18:26 6.25822 -75.23187 24100 ft 316 kts 342°
2026-04-30 18:27 6.29001 -75.25984 24112 ft 312 kts 289°
2026-04-30 18:27 6.29378 -75.28124 24129 ft 307 kts 262°
2026-04-30 18:28 6.27493 -75.31748 24175 ft 296 kts 213°
2026-04-30 18:28 6.25665 -75.32621 24194 ft 291 kts 189°
2026-04-30 18:28 6.21669 -75.32684 24224 ft 290 kts 175°
2026-04-30 18:29 6.19632 -75.32567 24232 ft 290 kts 174°
2026-04-30 18:29 6.14187 -75.30704 23898 ft 280 kts 128°
2026-04-30 18:30 6.11905 -75.28432 23282 ft 279 kts 159°
2026-04-30 18:30 6.07240 -75.28736 21566 ft 313 kts 187°
2026-04-30 18:31 6.05030 -75.29039 20722 ft 328 kts 184°
2026-04-30 18:31 6.00408 -75.29452 19694 ft 334 kts 182°
2026-04-30 18:32 5.95792 -75.29814 18926 ft 331 kts 182°
2026-04-30 18:32 5.93496 -75.30008 18560 ft 330 kts 182°
2026-04-30 18:32 5.88988 -75.30640 17689 ft 328 kts 201°
2026-04-30 18:33 5.87163 -75.32005 16984 ft 332 kts 230°
2026-04-30 18:33 5.86172 -75.36438 15653 ft 335 kts 276°
2026-04-30 18:33 5.86553 -75.38748 15005 ft 334 kts 280°
2026-04-30 18:34 5.87367 -75.40902 14443 ft 330 kts 306°
2026-04-30 18:34 5.91187 -75.42979 13235 ft 317 kts 358°
2026-04-30 18:34 5.93368 -75.42990 12598 ft 311 kts
2026-04-30 18:35 5.95517 -75.42789 11949 ft 310 kts
2026-04-30 18:35 5.97624 -75.42567 11358 ft 307 kts
2026-04-30 18:35 5.99774 -75.42379 10714 ft 307 kts
2026-04-30 18:36 6.04006 -75.42206 9209 ft 299 kts 359°
2026-04-30 18:36 6.06012 -75.42243 8795 ft 277 kts 360°
2026-04-30 18:36 6.09599 -75.42270 8127 ft 239 kts
2026-04-30 18:37 6.11181 -75.42280 7830 ft 216 kts
2026-04-30 18:37 6.12615 -75.42289 7518 ft 197 kts
2026-04-30 18:37 6.13920 -75.42297 7219 ft 182 kts
2026-04-30 18:37 6.15143 -75.42305 6981 ft 168 kts
2026-04-30 18:38 6.16241 -75.42308 6982 ft 155 kts
2026-04-30 18:38 6.16994 -75.42322 7011 ft 56 kts
2026-04-30 18:38 6.17277 -75.42317 7017 ft 38 kts 358°
2026-04-30 18:38 6.17470 -75.42318 7022 ft 23 kts
2026-04-30 18:39 6.17562 -75.42368 7024 ft 10 kts 274°
2026-04-30 18:39 6.17566 -75.42441 7023 ft 11 kts 267°
2026-04-30 18:39 6.17523 -75.42519 7021 ft 17 kts 215°
2026-04-30 18:39 6.17417 -75.42599 7020 ft 19 kts 216°
2026-04-30 18:40 6.17287 -75.42621 7022 ft 20 kts 178°
2026-04-30 18:40 6.17147 -75.42617 7019 ft 21 kts 182°
2026-04-30 18:40 6.17023 -75.42660 7019 ft 9 kts 214°
2026-04-30 18:40 6.17021 -75.42700 7018 ft 3 kts 289°
2026-04-30 18:41 6.17031 -75.42715 7020 ft 0 kts 309°
2026-04-30 18:41 6.17032 -75.42716 7020 ft 0 kts 308°
2026-04-30 18:47 6.17033 -75.42716 7020 ft 0 kts 308°